sat.trackr.live / text

‹ back to catalog

SHIJIAN-30B (SJ-30B)

NORAD 66546 · 2025-266B

PAYLOAD ACTIVE UNKNOWN

§ Identity

Operator
Country
PRC
Launch date
2025-11-19
Launch site
JSC
Launch vehicle
Mass (kg)
RCS (m²)

External: N2YO · Heavens-Above · Gunter

§ Orbital elements

Epoch: 2026-05-24T21:28:22.881792Z

Period
95.03 min
Inclination
51.7973°
Eccentricity
0.0009013
Mean motion
15.15337126 rev/d
Perigee alt
513.7 km
Apogee alt
526.2 km
Semi-major
6,898.1 km
B*
4.1163e-4
RAAN
288.4814°
Arg perigee
172.8045°
Mean anomaly
187.3062°
Rev number
2,832

§ Raw data

SHIJIAN-30B (SJ-30B)1 66546U 25266B   26144.89470928  .00007562  00000+0  41163-3 0  99992 66546  51.7973 288.4814 0009013 172.8045 187.3062 15.15337126 28322

JSON: /api/v1/satellites/66546 · /tle

For live sub-satellite position, see the globe view (requires WebGL).

§ Visibility from observer

Set your observer location to see the next 7 days of passes ≥ 10°. The values pass through the URL so the page stays shareable.

No JS? Fill the form by hand. The geolocation button needs JavaScript.